#timestamp,LO_Frequency,Hit,StdDev 
1619838015.1,286047008.7,Y
1619838035.9,286047003.3,P
1619838055.7,286047004.0,P
1619838075.5,286047000.6,N
1619838095.4,286046999.0,N
1619838115.2,286046996.0,N
1619838135.0,286046993.3,N
1619838135.9,286046993.3,N
1619838155.8,286046996.0,N
1619838175.6,286046993.7,N
1619838195.5,286046997.2,N
1619838215.3,286046999.5,N
1619838235.1,286046997.8,N
1619838255.9,286046995.0,N
1619838275.7,286046995.9,N
1619838295.5,286046993.5,N
1619838315.4,286046994.7,N
1619838335.2,286046994.7,N
1619838355.1,286046992.2,N
1619838356.0,286046992.2,N
1619838375.8,286046993.9,N
1619838395.6,286046992.5,N
1619838415.5,286046988.7,Y
1619838435.3,286046994.2,P
1619838455.2,286046994.6,P
1619838475.9,286046994.2,P
1619838495.7,286046990.1,Y
1619838515.6,286046998.2,P
1619838535.4,286047001.7,N
1619838555.2,286047009.2,P
1619838575.1,286047015.2,N
1619838576.0,286047015.2,N
1619838595.8,286047016.6,N
1619838615.7,286047015.6,N
1619838635.5,286047019.9,N
1619838655.3,286047018.2,N
1619838675.2,286047015.7,N
1619838695.0,286047021.9,N
1619838695.9,286047021.9,N
1619838715.8,286047022.2,N
1619838735.6,286047025.8,N
1619838755.4,286047032.9,Y
1619838775.3,286047020.5,P
1619838795.1,286047028.2,P
1619838815.8,286047026.9,P
1619838835.7,286047033.0,Y
1619838855.5,286047008.9,P
1619838875.4,286047004.3,N
1619838895.2,286047000.9,N
1619838915.0,286046998.4,N
1619838915.9,286046998.4,N
1619838935.8,286046997.4,N
1619838955.6,286046996.2,N
1619838975.5,286046995.1,N
1619838995.3,286046997.1,N
1619839015.1,286046996.6,N
1619839035.9,286047000.8,N
1619839055.7,286046999.9,N
1619839075.6,286046999.9,N
1619839095.4,286047000.8,N
1619839115.2,286046996.6,N
1619839135.1,286046997.3,N
1619839136.0,286046997.3,N
1619839155.8,286046994.1,N
1619839175.7,286046994.4,N
1619839195.5,286046996.4,N
1619839215.3,286046997.9,N
1619839235.2,286047002.1,N
1619839255.0,286047006.3,N
1619839255.9,286047006.3,N
1619839275.7,286047007.8,N
1619839295.6,286047014.0,N
1619839315.4,286047014.8,N
1619839335.3,286047019.1,N
1619839355.1,286047024.1,Y
1619839375.8,286047023.6,P
1619839395.7,286047041.7,P
1619839415.5,286047043.1,N
1619839435.4,286047037.5,N
1619839455.2,286047038.3,N
1619839475.0,286047038.0,N
1619839475.9,286047038.0,N
1619839495.8,286047035.5,N
1619839515.6,286047035.2,N
1619839535.4,286047034.2,N
1619839555.3,286047022.5,N
1619839575.1,286047017.5,N
1619839595.9,286047014.2,N
1619839615.7,286047015.2,N
1619839635.5,286047013.4,N
1619839655.4,286047015.5,N
1619839675.2,286047016.4,N
1619839695.0,286047023.1,N
1619839696.0,286047023.1,N
1619839715.8,286047024.6,N
1619839735.6,286047027.5,N
1619839755.5,286047030.8,N
1619839775.3,286047033.2,Y
1619839795.1,286047008.7,P
1619839815.9,286047009.9,N
1619839835.7,286047017.2,N
1619839855.6,286047016.6,N
1619839875.4,286047015.3,N
1619839895.2,286047014.6,N
1619839915.1,286047013.2,N
1619839916.0,286047013.2,N
1619839935.8,286047011.9,N
1619839955.7,286047011.9,N
1619839975.5,286047010.9,N
1619839995.3,286047009.9,N
1619840015.2,286047009.3,N
1619840035.0,286047011.3,N
1619840035.9,286047011.3,N
1619840055.8,286047013.5,Y
1619840075.6,286047002.0,P
1619840095.4,286047003.0,N
1619840115.3,286047002.9,N
1619840135.1,286047003.2,N
1619840155.8,286047007.5,N
1619840175.7,286047007.5,N
1619840195.5,286047006.2,N
1619840215.4,286047008.9,N
1619840235.2,286047007.2,N
1619840255.0,286047006.3,N
1619840255.9,286047006.3,N
1619840275.8,286047007.1,N
1619840295.6,286047003.4,N
1619840315.4,286047005.2,N
1619840335.3,286047002.1,N
1619840355.1,286047002.1,N
1619840375.9,286047001.4,N
1619840395.7,286047005.8,N
1619840415.5,286047008.4,N
1619840435.4,286047011.5,Y
1619840455.2,286047007.2,P
1619840475.1,286047006.1,P
1619840476.0,286047006.1,P
1619840495.8,286047004.9,Y
1619840515.6,286046999.6,P
1619840535.5,286046996.4,N
1619840555.3,286046992.4,N
1619840575.1,286046992.2,N
1619840595.9,286046992.3,N
1619840615.7,286046992.6,N
1619840635.6,286046991.8,N
1619840655.4,286046991.7,N
1619840675.2,286046996.1,N
1619840695.1,286046997.3,N
1619840696.0,286046997.3,N
1619840715.8,286047001.6,N
1619840735.7,286047005.9,N
1619840755.5,286047008.9,N
1619840775.3,286047015.6,N
1619840795.2,286047012.9,N
1619840815.0,286047015.1,N
1619840815.9,286047015.1,N
1619840835.7,286047017.0,N
1619840855.6,286047019.2,N
1619840875.4,286047020.8,N
1619840895.3,286047022.3,N
1619840915.1,286047020.6,N
1619840935.8,286047020.3,N
1619840955.7,286047023.8,N
1619840975.5,286047029.4,N
1619840995.4,286047032.3,N
1619841015.2,286047035.1,N
1619841035.0,286047034.1,N
1619841035.9,286047034.1,N
1619841055.8,286047030.3,N
1619841075.6,286047025.9,N
1619841095.5,286047023.8,N
1619841115.3,286047037.5,N
1619841165.2,286047021.8,E
1619841175.1,286047006.5,N
1619841176.0,286047006.5,P
1619841195.8,286046994.8,P
1619841215.7,286046991.4,N
1619841235.5,286046985.7,N
1619841255.3,286046982.9,N
1619841275.2,286046980.7,N
1619841295.0,286046984.7,N
1619841295.9,286046984.7,N
1619841315.8,286046986.1,N
1619841335.6,286046984.1,N
1619841355.4,286046985.1,N
1619841375.3,286046979.4,N
1619841395.1,286046980.4,N
1619841415.8,286046976.0,N
1619841435.7,286046974.2,N
1619841455.5,286046973.3,N
1619841475.4,286046973.0,N
1619841495.2,286046975.0,N
1619841515.0,286046975.1,N
1619841515.9,286046975.1,N
1619841535.8,286046972.2,N
1619841555.6,286046970.8,Y
1619841575.5,286046985.1,P
1619841595.3,286046986.0,P
